Simultaneous Nadir Overpasses (SNOs) Predictions

Prediction of SNOs between GOES-15 and TERRA Satellite Orbit:

Table of predicted SNOs for the next 14.0 days since TLE Epoch: 1/28/2012
Index Date Time (GOES-15) GOES-15 Lat,Lon TERRA Lat,Lon Distance(km) Time Diff (sec)
1 01/28/2012 07:18:10 -0.01,-134.39 0.55,-131.87 286.64 80
2 01/28/2012 19:39:24 0.01,-134.34 0.61,-137.02 304.47 80
3 01/30/2012 19:24:31 -0.00,-134.29 -0.08,-134.06 26.33 80
4 02/01/2012 19:12:17 -0.02,-134.22 -0.71,-131.09 355.99 80
5 02/02/2012 07:33:39 0.01,-134.23 -0.42,-136.28 232.63 80
6 02/04/2012 07:24:05 0.00,-134.16 0.16,-133.30 97.06 80
7 02/04/2012 19:45:19 -0.00,-134.11 0.92,-138.46 494.09 80
8 02/06/2012 07:11:51 0.00,-134.08 0.82,-130.34 426.11 80
9 02/06/2012 19:33:04
